[[{"header":{"parameterUnit":"m.s-1","parameterCategory":1,"la1":30.2992,"la2":30.254,"lo1":-89.0895,"lo2":-89.0443,"dy":0.0025,"dx":0.0025,"nx":19,"ny":19,"refTime":"2026-04-10T03:00:00:Z","depth":0,"parameterNumber":2,"parameterNumberName":"U-component_of_WINDS"},"data":[0,0,0,-3.2012,-3.2015,-3.2112,-3.2112,-3.2273,-3.2275,0,0,0,0,0,0,0,0,0,0,0,-3.2007,-3.2009,-3.2012,-3.2015,-3.2112,-3.2112,-3.2273,-3.2275,0,0,0,0,0,0,0,0,0,0,0,-3.2006,-3.2009,-3.2011,-3.2016,-3.2112,-3.2112,-3.2273,-3.2186,0,0,0,0,0,0,0,0,0,0,-3.2086,-3.2104,-3.2008,-3.2011,-3.2017,-3.2112,-3.2112,-3.2181,-3.2192,-3.2246,0,-3.2301,0,-3.2291,-3.2289,-3.2289,0,0,0,-3.1998,-3.2096,-3.2101,-3.2011,-3.2018,-3.2112,-3.2063,-3.2187,-3.2198,-3.226,-3.2303,-3.2308,-3.2294,-3.229,-3.2291,-3.2664,-3.2667,0,0,-3.1993,-3.2037,-3.2093,-3.2109,-3.2097,-3.206,-3.2067,-3.2193,-3.2243,-3.2303,-3.2311,-3.2296,-3.2291,-3.2293,-3.2662,-3.2665,0,0,0,-3.1989,-3.2034,-3.2035,-3.2104,-3.2118,-3.2064,-3.2071,-3.2237,-3.2234,-3.2312,-3.2298,-3.2292,-3.2295,-3.2659,-3.2663,-3.2834,0,0,0,-3.1985,-3.2032,-3.2034,-3.2062,-3.2117,-3.2179,-3.2113,-3.2225,-3.2238,-3.2297,-3.2292,-3.2297,-3.2656,-3.2661,-3.2823,-3.2909,0,0,0,-3.1993,-3.2032,-3.2055,-3.2064,-3.2107,-3.2176,-3.2179,-3.2227,-3.223,-3.2289,-3.2297,-3.2654,-3.266,-3.2814,-3.2892,-3.3021,0,0,0,-3.2014,-3.2205,-3.2058,-3.2265,-3.2107,-3.2281,-3.2178,-3.2305,-3.2376,-3.2293,-3.2656,-3.2662,-3.2811,-3.2882,-3.3011,-3.3139,-3.3196,0,0,-3.228,-3.2239,-3.2357,-3.2228,-3.244,-3.2262,-3.2499,-3.2521,-3.2486,-3.2607,-3.2615,-3.2827,-3.2891,-3.3019,-3.3496,-3.3542,0,0,0,-3.2456,-3.2542,-3.2588,-3.2658,-3.268,-3.2706,-3.2687,-3.2695,-3.2796,-3.2557,-3.2906,-3.2943,-3.3016,-3.3075,-3.3114,-3.3174,-3.2691,-3.269,-3.269,-3.2897,-3.2842,-3.3034,-3.2991,-3.306,-3.3038,-3.3089,-3.3097,-3.302,-3.3103,-3.314,-3.3436,-3.3507,-3.3536,-3.36,-3.32,-3.3201,-3.3202,-3.3202,-3.3283,-3.3397,-3.3289,-3.3438,-3.3378,-3.3502,-3.3489,-3.3431,-3.3538,-3.3404,-3.3465,-3.3326,-3.3588,-3.3641,-3.3215,-3.3212,-3.3211,-3.321,-3.3209,-3.3568,-3.3612,-3.3619,-3.3714,-3.3794,-3.3742,-3.3851,-3.3791,-3.3736,-3.3796,-3.3829,-3.3826,-3.3818,-3.3816,-3.3817,-3.3818,-3.3819,-3.3819,-3.382,-3.3861,-3.3863,-3.3961,-3.4001,-3.4038,-3.408,-3.406,-3.4095,-3.4118,-3.4067,-3.4067,-3.3983,-3.3623,-3.3535,-3.3836,-3.3833,-3.3831,-3.383,-3.3829,-3.4277,-3.4173,-3.4326,-3.4364,-3.4405,-3.4489,-3.441,-3.4487,-3.4507,-3.4563,-3.4465,-3.4208,-3.4161,-3.413,-3.4057,-3.4475,-3.4475,-3.4475,-3.4475,-3.4519,-3.4489,-3.4632,-3.4696,-3.4751,-3.4697,-3.4872,-3.4858,-3.4828,-3.4837,-3.4767,-3.4664,-3.4635,-3.4606,-3.4564,-3.4495,-3.5015,-3.5016,-3.5016,-3.4772,-3.4744,-3.4905,-3.4874,-3.4902,-3.4927,-3.509,-3.5168,-3.5112,-3.5037,-3.4843,-3.482,-3.4653,-3.4602,-3.4525,-3.4462,-3.4334,0,0]},{"header":{"parameterUnit":"m.s-1","parameterCategory":1,"la1":30.2992,"la2":30.254,"lo1":-89.0895,"lo2":-89.0443,"dy":0.0025,"dx":0.0025,"nx":19,"ny":19,"refTime":"2026-04-10T03:00:00:Z","depth":0,"parameterNumber":3,"parameterNumberName":"V-component_of_WINDS"},"data":[0,0,0,-0.7809,-0.781,-0.785,-0.785,-0.7883,-0.7884,0,0,0,0,0,0,0,0,0,0,0,-0.7787,-0.7787,-0.7809,-0.781,-0.785,-0.785,-0.7883,-0.7884,0,0,0,0,0,0,0,0,0,0,0,-0.7787,-0.7787,-0.7787,-0.781,-0.785,-0.785,-0.7883,-0.7859,0,0,0,0,0,0,0,0,0,0,-0.7823,-0.7794,-0.7787,-0.7787,-0.781,-0.785,-0.785,-0.7858,-0.7861,-0.7858,0,-0.7853,0,-0.7869,-0.7885,-0.7885,0,0,0,-0.7817,-0.7792,-0.7811,-0.7787,-0.781,-0.785,-0.7834,-0.786,-0.7863,-0.786,-0.7854,-0.7855,-0.7869,-0.7885,-0.7885,-0.7843,-0.7843,0,0,-0.7815,-0.7789,-0.781,-0.7813,-0.7807,-0.7833,-0.7835,-0.7862,-0.7852,-0.7854,-0.7856,-0.787,-0.7885,-0.7885,-0.7844,-0.7843,0,0,0,-0.7804,-0.7787,-0.7807,-0.7811,-0.782,-0.7834,-0.7837,-0.7851,-0.786,-0.7857,-0.787,-0.7885,-0.7885,-0.7844,-0.7843,-0.7791,0,0,0,-0.7803,-0.7781,-0.7806,-0.779,-0.7819,-0.7836,-0.7825,-0.7858,-0.7862,-0.787,-0.7885,-0.7885,-0.7845,-0.7844,-0.7793,-0.7769,0,0,0,-0.7788,-0.7779,-0.7782,-0.7789,-0.7805,-0.7836,-0.7847,-0.7859,-0.7869,-0.7885,-0.7885,-0.7845,-0.7844,-0.7796,-0.7774,-0.7749,0,0,0,-0.7765,-0.7735,-0.778,-0.7752,-0.7804,-0.7804,-0.7847,-0.7848,-0.7855,-0.7885,-0.7845,-0.7843,-0.7797,-0.7776,-0.7752,-0.7723,-0.7709,0,0,-0.7713,-0.7728,-0.7713,-0.7755,-0.7739,-0.78,-0.7777,-0.7808,-0.7833,-0.7838,-0.7837,-0.7792,-0.7774,-0.775,-0.7643,-0.7632,0,0,0,-0.7688,-0.7676,-0.7678,-0.7684,-0.7707,-0.7723,-0.7761,-0.7772,-0.7777,-0.7831,-0.7779,-0.7769,-0.7756,-0.7743,-0.7733,-0.7723,-0.7837,-0.7837,-0.7837,-0.7576,-0.7609,-0.7586,-0.7624,-0.7629,-0.7667,-0.7673,-0.7694,-0.7728,-0.7715,-0.7716,-0.7647,-0.7631,-0.7624,-0.7613,-0.7705,-0.7705,-0.7705,-0.7704,-0.7501,-0.7489,-0.7533,-0.7526,-0.7561,-0.7556,-0.7591,-0.7614,-0.7613,-0.7649,-0.7639,-0.7675,-0.7611,-0.7602,-0.7701,-0.7701,-0.7702,-0.7702,-0.7702,-0.7429,-0.743,-0.7444,-0.7454,-0.7457,-0.7497,-0.7493,-0.7526,-0.7557,-0.7547,-0.755,-0.7551,-0.7554,-0.7547,-0.7546,-0.7546,-0.7546,-0.7546,-0.7546,-0.7349,-0.7367,-0.736,-0.7381,-0.7388,-0.7401,-0.7438,-0.7445,-0.7461,-0.7485,-0.7485,-0.7517,-0.7599,-0.7618,-0.7542,-0.7543,-0.7543,-0.7543,-0.7544,-0.7258,-0.7283,-0.7273,-0.7279,-0.7305,-0.7305,-0.7347,-0.7358,-0.7369,-0.7365,-0.74,-0.7456,-0.7474,-0.7482,-0.7497,-0.7395,-0.7395,-0.7395,-0.7395,-0.7196,-0.7209,-0.7204,-0.7212,-0.7223,-0.726,-0.7244,-0.7272,-0.7304,-0.7312,-0.7332,-0.7356,-0.7363,-0.7377,-0.7387,-0.7402,-0.7277,-0.7277,-0.7277,-0.7141,-0.7155,-0.7136,-0.7169,-0.7191,-0.7209,-0.7195,-0.7201,-0.7243,-0.7273,-0.7319,-0.7324,-0.7363,-0.7375,-0.7404,-0.7419,-0.7447,0,0]}]]